Belmar-Farmingdale, NJ

8:54 PM EDT on May 23, 2017 (GMT -0400)
Allaire

Weather History for KBLM - March, 2011

Change the Weather History Date:

Wednesday, March 2, 2011

  Actual Average Record
Temperature  
Mean Temperature 40 °F -  
Max Temperature 53 °F 43 °F 69 °F (1997)
Min Temperature 28 °F 29 °F 17 °F (2009)
Degree Days  
Heating Degree Days 24    
Moisture  
Dew Point 16 °F    
Average Humidity 42    
Maximum Humidity 55    
Minimum Humidity 28    
Precipitation  
Precipitation 0.12 in - - ()
Sea Level Pressure  
Sea Level Pressure 30.15 in    
Wind  
Wind Speed 11 mph (WSW)    
Max Wind Speed 25 mph    
Max Gust Speed 36 mph    
Visibility 10 miles    
Events      
Averages and records for this station are not official NWS values.
T = Trace of Precipitation, MM = Missing Value Source: NWS Daily Summary

Daily Weather History Graph

Daily Weather History Graph

Search for Another Location

Airport or City:

Trip Planner

Search our weather history database for the weather conditions in past years. The results will help you decide how hot, cold, wet, or windy it might be!

Date:

Astronomy

Mar. 02, 2011 Rise Set
Actual Time 6:28 AM EST 5:48 PM EST
Civil Twilight 6:01 AM EST 6:16 PM EST
Nautical Twilight 5:30 AM EST 6:47 PM EST
Astronomical Twilight 4:58 AM EST 7:19 PM EST
Moon 5:06 AM EST (3/2) 4:01 PM EST (3/2)
Length of Visible Light 12h 14m
Length of Day
11h 20m
Waning Crescent, 4% of the Moon is Illuminated
Mar 2
Waning Crescent
Mar 4
New
Mar 12
First Quarter
Mar 19
Full
Mar 26
Last Quarter

Hourly Weather History & Observations

Time (EST) Temp. Windchill Dew Point Humidity Pressure Visibility Wind Dir Wind Speed Gust Speed Precip Events Conditions
12:15 AM 30.2 °F 24.3 °F 14.0 °F 51% 30.27 in 10.0 mi South 5.8 mph - N/A   Clear
12:35 AM 28.4 °F 22.2 °F 14.0 °F 55% 30.26 in 10.0 mi SSW 5.8 mph - N/A   Clear
12:55 AM 28.4 °F 23.3 °F 14.0 °F 55% 30.26 in 10.0 mi SW 4.6 mph - N/A   Clear
1:15 AM 28.4 °F 22.2 °F 12.2 °F 51% 30.25 in 10.0 mi SSW 5.8 mph - N/A   Clear
1:35 AM 30.2 °F 24.3 °F 12.2 °F 47% 30.24 in 10.0 mi SW 5.8 mph - N/A   Clear
1:55 AM 30.2 °F 24.3 °F 12.2 °F 47% 30.23 in 10.0 mi SSW 5.8 mph - N/A   Clear
2:15 AM 30.2 °F 23.4 °F 12.2 °F 47% 30.23 in 10.0 mi SW 6.9 mph - N/A   Clear
2:35 AM 30.2 °F 24.3 °F 12.2 °F 47% 30.22 in 10.0 mi SSW 5.8 mph - N/A   Clear
3:15 AM 30.2 °F 22.6 °F 12.2 °F 47% 30.21 in 10.0 mi SW 8.1 mph - N/A   Clear
3:55 AM 30.2 °F 21.9 °F 12.2 °F 47% 30.20 in 10.0 mi SSW 9.2 mph - N/A   Clear
4:15 AM 30.2 °F 21.9 °F 12.2 °F 47% 30.20 in 10.0 mi SSW 9.2 mph - N/A   Clear
4:35 AM 30.2 °F 21.9 °F 12.2 °F 47% 30.20 in 10.0 mi SW 9.2 mph - N/A   Clear
4:55 AM 32.0 °F 24.8 °F 14.0 °F 48% 30.20 in 10.0 mi SW 8.1 mph - N/A   Clear
5:15 AM 30.2 °F 21.9 °F 14.0 °F 51% 30.20 in 10.0 mi SW 9.2 mph - N/A   Clear
5:35 AM 30.2 °F 21.3 °F 14.0 °F 51% 30.20 in 10.0 mi SW 10.4 mph - N/A   Clear
5:55 AM 30.2 °F 20.8 °F 14.0 °F 51% 30.19 in 10.0 mi SSW 11.5 mph - N/A   Clear
6:15 AM 30.2 °F 21.9 °F 15.8 °F 55% 30.19 in 10.0 mi SSW 9.2 mph - N/A   Clear
6:35 AM 30.2 °F 21.9 °F 15.8 °F 55% 30.19 in 10.0 mi SSW 9.2 mph - N/A   Clear
7:15 AM 32.0 °F 24.2 °F 15.8 °F 51% 30.19 in 10.0 mi SSW 9.2 mph - N/A   Clear
7:35 AM 33.8 °F 25.8 °F 15.8 °F 48% 30.19 in - SSW 10.4 mph - N/A   Clear
8:35 AM 37.4 °F 29.8 °F 15.8 °F 41% 30.17 in - SW 11.5 mph 21.9 mph N/A   Clear
8:55 AM 39.2 °F 31.6 °F 15.8 °F 39% 30.16 in - SW 12.7 mph 19.6 mph N/A   Clear
9:15 AM 39.2 °F 30.8 °F 15.8 °F 39% 30.15 in - SW 15.0 mph 20.7 mph N/A   Clear
9:35 AM 41.0 °F 33.9 °F 15.8 °F 36% 30.14 in - SW 12.7 mph 27.6 mph N/A   Clear
9:55 AM 42.8 °F 35.4 °F 15.8 °F 34% 30.13 in - WSW 15.0 mph 25.3 mph N/A   Clear
10:15 AM - - - N/A% 30.11 in 10.0 mi WSW 12.7 mph 20.7 mph N/A   Clear
10:35 AM - - - N/A% 30.09 in - WSW 15.0 mph 24.2 mph 0.01 in   Unknown
10:55 AM - - - N/A% 30.09 in - WSW 13.8 mph 20.7 mph 0.12 in   Unknown
11:15 AM - - - N/A% 30.08 in - WSW 15.0 mph 21.9 mph N/A   Unknown
11:35 AM 50.0 °F - 19.4 °F 30% 30.06 in - West 18.4 mph 23.0 mph N/A   Clear
11:55 AM 51.8 °F - 21.2 °F 30% 30.06 in 10.0 mi West 16.1 mph 24.2 mph N/A   Clear
12:15 PM 51.8 °F - 21.2 °F 30% 30.06 in 10.0 mi West 17.3 mph 25.3 mph N/A   Clear
12:35 PM 51.8 °F - 21.2 °F 30% 30.03 in 10.0 mi West 16.1 mph 25.3 mph N/A   Clear
12:55 PM 51.8 °F - 19.4 °F 28% 30.02 in 10.0 mi WSW 16.1 mph 25.3 mph N/A   Clear
1:15 PM 51.8 °F - 19.4 °F 28% 30.02 in 10.0 mi WSW 20.7 mph 27.6 mph N/A   Clear
1:35 PM 53.6 °F - 21.2 °F 28% 30.01 in 10.0 mi West 18.4 mph 25.3 mph N/A   Clear
1:55 PM 53.6 °F - 21.2 °F 28% 30.01 in 10.0 mi Calm Calm - N/A   Clear
2:15 PM 53.6 °F - 23.0 °F 30% 30.00 in 10.0 mi Calm Calm - N/A   Clear
2:35 PM 53.6 °F - 23.0 °F 30% 30.00 in 10.0 mi WSW 16.1 mph 20.7 mph N/A   Clear
2:55 PM - - - N/A% 30.00 in 10.0 mi West 11.5 mph 23.0 mph N/A   Partly Cloudy
3:15 PM - - - N/A% 30.00 in 10.0 mi West 15.0 mph 26.5 mph N/A   Mostly Cloudy
3:35 PM - - - N/A% 30.01 in 10.0 mi WNW 19.6 mph 28.8 mph N/A   Mostly Cloudy
3:55 PM - - - N/A% 30.02 in 10.0 mi WNW 18.4 mph 21.9 mph N/A   Overcast
4:15 PM - - - N/A% 30.02 in 10.0 mi WNW 18.4 mph 26.5 mph N/A   Scattered Clouds
4:55 PM - - - N/A% 30.05 in 10.0 mi WNW 17.3 mph 31.1 mph N/A   Clear
5:15 PM - - - N/A% 30.06 in 10.0 mi NW 19.6 mph 31.1 mph N/A   Clear
5:55 PM - - - N/A% 30.10 in 10.0 mi WNW 19.6 mph 31.1 mph N/A   Clear
6:15 PM - - - N/A% 30.12 in 10.0 mi WNW 20.7 mph 31.1 mph N/A   Clear
6:35 PM - - - N/A% 30.13 in 10.0 mi WNW 17.3 mph 31.1 mph N/A   Clear
6:55 PM - - - N/A% 30.15 in 10.0 mi NW 17.3 mph 25.3 mph N/A   Clear
7:15 PM - - - N/A% 30.17 in 10.0 mi NW 20.7 mph 31.1 mph N/A   Clear
7:35 PM - - - N/A% 30.19 in 10.0 mi NNW 19.6 mph 27.6 mph N/A   Clear
7:55 PM - - - N/A% 30.21 in 10.0 mi NNW 18.4 mph 35.7 mph N/A   Clear
8:15 PM - - - N/A% 30.23 in 10.0 mi NNW 25.3 mph 32.2 mph N/A   Clear
8:35 PM - - - N/A% 30.25 in 10.0 mi NW 18.4 mph 35.7 mph N/A   Clear
8:55 PM - - - N/A% 30.27 in 10.0 mi NNW 23.0 mph 31.1 mph N/A   Clear
9:15 PM - - - N/A% 30.29 in 10.0 mi NNW 18.4 mph 25.3 mph N/A   Clear
9:35 PM - - - N/A% 30.30 in 10.0 mi NW 20.7 mph 28.8 mph N/A   Clear
9:55 PM - - - N/A% 30.32 in 10.0 mi NW 18.4 mph 28.8 mph N/A   Clear
10:15 PM - - - N/A% 30.33 in 10.0 mi NNW 16.1 mph 21.9 mph N/A   Clear
10:35 PM - - - N/A% 30.34 in 10.0 mi NNW 17.3 mph 31.1 mph N/A   Clear
10:55 PM - - - N/A% 30.36 in 10.0 mi NNW 18.4 mph 33.4 mph N/A   Clear
11:15 PM - - - N/A% 30.38 in 10.0 mi NNW 21.9 mph 29.9 mph N/A   Clear
11:35 PM - - - N/A% 30.39 in 10.0 mi NW 24.2 mph 32.2 mph N/A   Clear
11:55 PM - - - N/A% 30.40 in 10.0 mi NNW 17.3 mph 26.5 mph N/A   Clear